軌道要素
Epoch 2018 July 21.0 TT = JDT 2458320.5
T 2018 July 10.02417 TT MPCW
q 1.3034792 (2000.0) P Q
n 0.01005372 Peri. 14.13241 +0.97628045 +0.04211551
a 21.2610615 Node 339.46357 -0.20394288 +0.50820428
e 0.9386917 Incl. 37.25724 +0.07268967 +0.86020619
P 98.03
From 159 observations 2018 June 25-2019 Jan. 17, mean residual 0".5.
|